Regional Weather Roundup
Issued by NWS Memphis, TN

Home | Current Version | Previous Version | Text Only | Print | Product List | Glossary On
Versions: 1 2 3 4 5 6 7 8 9 10 11 12 13 14 15 16 17 18 19 20 21 22 23 24 25 26 27 28 29 30 31 32 33 34 35 36 37 38 39 40 41 42 43 44 45 46 47 48 49 50
000
ASUS44 KMEG 070210
RWRMEG
MEMPHIS CWA HOURLY WEATHER ROUNDUP
NATIONAL WEATHER SERVICE MEMPHIS TN
900 PM CDT MON JUL 06 2015

...WEST TENNESSEE...

CITY           SKY/WX    TMP DP  RH WIND       PRES   REMARKS
MEMPHIS INTL   MOCLDY    81  73  76 S8        30.02R
NWS MEMPHIS      N/A     80 N/A N/A MISG        N/A
JACKSON        PTCLDY    77  72  84 S5        30.02S
LEXINGTON      CLEAR     75  72  88 S5        30.03R
DYERSBURG        N/A    N/A N/A N/A MISG        N/A
PARIS          CLEAR     75  72  88 S6        30.02R


...EASTERN ARKANSAS...

CITY           SKY/WX    TMP DP  RH WIND       PRES   REMARKS
JONESBORO      TSTM      73  72  96 SW13      30.00R FOG
WEST MEMPHIS   PTCLDY    78  75  90 S8        30.00R
BATESVILLE     MOCLDY    79  73  83 CALM      29.97R
NEWPORT        CLOUDY    77  74  90 SE6       29.99S
WALNUT RIDGE   MOCLDY    77  72  83 S15       29.97R
BLYTHEVILLE    PTCLDY    81  75  82 S9        29.99S
SEARCY         MOCLDY    80  76  87 S5        29.98S
STUTTGART      MOCLDY    82  75  78 MISG      29.97S
PINE BLUFF     PTCLDY    80  76  87 SE5       29.99R
MONTICELLO     MOCLDY    82  78  88 S3        30.00R HX  91


...NORTH MISSISSIPPI...

CITY           SKY/WX    TMP DP  RH WIND       PRES   REMARKS
TUPELO         CLEAR     79  74  84 S3        30.04S
OXFORD         CLEAR     75  73  94 SE6       30.06R
OLIVE BRANCH     N/A     75  75 100 S6        30.03R
TUNICA         PTCLDY    79  73  83 S3        30.03R
CLARKSDALE     PTCLDY    79  79 100 SE6       30.03R
CORINTH        PTCLDY    77  72  83 S5        30.04S
GREENWOOD      CLEAR     78  74  87 CALM      30.02S
COLUMBUS       CLEAR     77  74  90 S6        30.05R
STARKVILLE     FAIR      77  73  88 CALM      30.05R
GOLDEN TRIANGL CLEAR     79  72  78 S5        30.05R


...SOUTHEAST MISSOURI...

CITY           SKY/WX    TMP DP  RH WIND       PRES   REMARKS
WEST PLAINS    CLOUDY    78  71  79 S7        29.97F
POPLAR BLUFF   PTCLDY    79  74  84 S8        29.94F
CAPE GIRARDEAU PTCLDY    80  74  81 S7        29.96S


...NORTHWEST ALABAMA...

CITY           SKY/WX    TMP DP  RH WIND       PRES   REMARKS
MUSCLE SHOALS  CLEAR     79  71  76 SW3       30.07R


...MIDDLE TENNESSEE...

CITY           SKY/WX    TMP DP  RH WIND       PRES   REMARKS
NASHVILLE      PTCLDY    78  72  81 S3        30.05R
CLARKSVILLE    PTCLDY    79  72  79 S5        30.01S
COLUMBIA       CLEAR     79  75  89 CALM      30.04S


...WESTERN KENTUCKY...

CITY           SKY/WX    TMP DP  RH WIND       PRES   REMARKS
PADUCAH        CLEAR     80  73  79 S3        29.97S
FORT CAMPBELL  PTCLDY    80  73  80 S8        30.01R


...CENTRAL ARKANSAS...

CITY           SKY/WX    TMP DP  RH WIND       PRES   REMARKS
LITTLE ROCK    MOCLDY    81  73  76 S7        29.97S


SKY/WX REPORTED AS FAIR MEANS FEW OR NO CLOUDS BELOW
12 THOUSAND FEET.



USA.gov is the U.S. government's official web portal to all federal, state and local government web resources and services.